| time (UTC) | temp F | wind direction | speed MPH | gust MPH | rain 1hr in | rain 24hr in | rain mn in | humidity % | barometer mb |
| 20260506224715 | 81 | 312 | 9.0 | 13.0 | 0.00 | 0.00 | 0.00 | 16 | 1016.2 |
| 20260506223732 | 81 | 317 | 11.0 | 17.0 | 0.00 | 0.00 | 0.00 | 17 | 1016.2 |
| 20260506222715 | 81 | 357 | 6.0 | 12.0 | 0.00 | 0.00 | 0.00 | 16 | 1016.4 |
| 20260506221716 | 81 | 323 | 10.0 | 18.0 | 0.00 | 0.00 | 0.00 | 18 | 1016.3 |
| 20260506215816 | 80 | 323 | 9.0 | 14.0 | 0.00 | 0.00 | 0.00 | 19 | 1016.6 |
| 20260506214833 | 80 | 308 | 14.0 | 24.0 | 0.00 | 0.00 | 0.00 | 19 | 1016.5 |
| 20260506213916 | 81 | 308 | 13.0 | 19.0 | 0.00 | 0.00 | 0.00 | 17 | 1016.5 |
| 20260506213015 | 81 | 338 | 8.0 | 13.0 | 0.00 | 0.00 | 0.00 | 19 | 1016.6 |
| 20260506212016 | 79 | 352 | 10.0 | 16.0 | 0.00 | 0.00 | 0.00 | 20 | 1016.8 |
| 20260506211031 | 80 | 305 | 13.0 | 20.0 | 0.00 | 0.00 | 0.00 | 19 | 1016.9 |
| 20260506204114 | 80 | 323 | 10.0 | 16.0 | 0.00 | 0.00 | 0.00 | 19 | 1017.0 |
| 20260506203116 | 80 | 1 | 8.0 | 14.0 | 0.00 | 0.00 | 0.00 | 19 | 1017.1 |
| 20260506201133 | 79 | 353 | 8.0 | 15.0 | 0.00 | 0.00 | 0.00 | 20 | 1017.2 |
| 20260506195217 | 78 | 1 | 8.0 | 14.0 | 0.00 | 0.00 | 0.00 | 20 | 1017.2 |
| 20260506194214 | 78 | 345 | 9.0 | 15.0 | 0.00 | 0.00 | 0.00 | 21 | 1017.4 |
| 20260506193233 | 78 | 14 | 7.0 | 11.0 | 0.00 | 0.00 | 0.00 | 20 | 1017.4 |
| 20260506192215 | 78 | 32 | 3.0 | 5.0 | 0.00 | 0.00 | 0.00 | 22 | 1017.4 |
| 20260506192116 | 78 | 320 | 3.0 | 5.0 | 0.00 | 0.00 | 0.00 | 21 | 1017.4 |
| 20260506191130 | 78 | 329 | 12.0 | 17.0 | 0.00 | 0.00 | 0.00 | 22 | 1017.1 |
| 20260506190215 | 78 | 11 | 8.0 | 15.0 | 0.00 | 0.00 | 0.00 | 22 | 1017.3 |
| 20260506185216 | 78 | 106 | 4.0 | 5.0 | 0.00 | 0.00 | 0.00 | 23 | 1017.4 |
| 20260506183232 | 76 | 281 | 6.0 | 9.0 | 0.00 | 0.00 | 0.00 | 24 | 1017.4 |
| 20260506182216 | 76 | 294 | 5.0 | 11.0 | 0.00 | 0.00 | 0.00 | 25 | 1017.7 |
| 20260506181231 | 76 | 295 | 3.0 | 6.0 | 0.00 | 0.00 | 0.00 | 24 | 1017.7 |
| 20260506180215 | 76 | 17 | 6.0 | 11.0 | 0.00 | 0.00 | 0.00 | 24 | 1017.6 |
| 20260506175215 | 75 | 333 | 5.0 | 10.0 | 0.00 | 0.00 | 0.00 | 25 | 1017.7 |
| 20260506174231 | 74 | 354 | 7.0 | 13.0 | 0.00 | 0.00 | 0.00 | 26 | 1017.6 |
| 20260506171233 | 72 | 343 | 6.0 | 10.0 | 0.00 | 0.00 | 0.00 | 27 | 1018.0 |
| 20260506170315 | 71 | 315 | 0.0 | 3.0 | 0.00 | 0.00 | 0.00 | 27 | 1017.9 |
| 20260506165316 | 70 | 261 | 7.0 | 12.0 | 0.00 | 0.00 | 0.00 | 27 | 1017.9 |
| 20260506164315 | 70 | 263 | 4.0 | 9.0 | 0.00 | 0.00 | 0.00 | 27 | 1018.1 |
| 20260506162330 | 69 | 277 | 6.0 | 10.0 | 0.00 | 0.00 | 0.00 | 28 | 1018.2 |
| 20260506161414 | 68 | 280 | 4.0 | 7.0 | 0.00 | 0.00 | 0.00 | 27 | 1018.2 |
| 20260506161331 | 68 | 300 | 4.0 | 7.0 | 0.00 | 0.00 | 0.00 | 26 | 1018.2 |
| 20260506160415 | 69 | 283 | 6.0 | 10.0 | 0.00 | 0.00 | 0.00 | 27 | 1018.4 |
| 20260506154514 | 67 | 246 | 2.0 | 4.0 | 0.00 | 0.00 | 0.00 | 27 | 1018.4 |
| 20260506153530 | 68 | 271 | 3.0 | 5.0 | 0.00 | 0.00 | 0.00 | 27 | 1018.4 |
| 20260506153416 | 68 | 276 | 4.0 | 6.0 | 0.00 | 0.00 | 0.00 | 28 | 1018.5 |
| 20260506151416 | 67 | 298 | 0.0 | 2.0 | 0.00 | 0.00 | 0.00 | 29 | 1018.5 |
| 20260506150415 | 67 | 349 | 1.0 | 3.0 | 0.00 | 0.00 | 0.00 | 29 | 1018.5 |
| 20260506145514 | 65 | 337 | 0.0 | 2.0 | 0.00 | 0.00 | 0.00 | 31 | 1018.5 |
| 20260506144516 | 63 | 319 | 2.0 | 4.0 | 0.00 | 0.00 | 0.00 | 32 | 1018.5 |
| 20260506143515 | 62 | 297 | 4.0 | 5.0 | 0.00 | 0.00 | 0.00 | 34 | 1018.4 |
| 20260506142614 | 61 | 284 | 4.0 | 5.0 | 0.00 | 0.00 | 0.00 | 35 | 1018.2 |
| 20260506141615 | 60 | 307 | 5.0 | 6.0 | 0.00 | 0.00 | 0.00 | 36 | 1018.2 |
| 20260506140614 | 59 | 316 | 1.0 | 2.0 | 0.00 | 0.00 | 0.00 | 37 | 1018.0 |
| 20260506140531 | 59 | 335 | 1.0 | 3.0 | 0.00 | 0.00 | 0.00 | 37 | 1017.9 |
| 20260506135613 | 58 | 318 | 4.0 | 6.0 | 0.00 | 0.00 | 0.00 | 37 | 1018.0 |
| 20260506135530 | 58 | 314 | 5.0 | 7.0 | 0.00 | 0.00 | 0.00 | 37 | 1017.9 |
| 20260506133515 | 57 | 329 | 3.0 | 5.0 | 0.00 | 0.00 | 0.00 | 38 | 1017.6 |
| 20260506132515 | 57 | 354 | 3.0 | 7.0 | 0.00 | 0.00 | 0.00 | 38 | 1017.4 |
| 20260506131432 | 56 | 326 | 2.0 | 6.0 | 0.00 | 0.00 | 0.00 | 40 | 1017.2 |
| 20260506130416 | 56 | 360 | 3.0 | 4.0 | 0.00 | 0.00 | 0.00 | 40 | 1017.0 |
| 20260506125415 | 56 | 351 | 1.0 | 2.0 | 0.00 | 0.00 | 0.00 | 40 | 1016.8 |
| 20260506123515 | 56 | 360 | 3.0 | 4.0 | 0.00 | 0.00 | 0.00 | 38 | 1016.6 |
| 20260506122530 | 57 | 292 | 0.0 | 0.0 | 0.00 | 0.00 | 0.00 | 37 | 1016.5 |
| 20260506121532 | 58 | 292 | 2.0 | 3.0 | 0.00 | 0.00 | 0.00 | 34 | 1016.4 |
| 20260506120616 | 59 | 315 | 0.0 | 0.0 | 0.00 | 0.00 | 0.00 | 34 | 1016.3 |
| 20260506114629 | 59 | 315 | 0.0 | 0.0 | 0.00 | 0.00 | 0.00 | 34 | 1016.2 |
| 20260506113615 | 60 | 292 | 3.0 | 3.0 | 0.00 | 0.00 | 0.00 | 34 | 1016.0 |
| 20260506112616 | 60 | 292 | 2.0 | 4.0 | 0.00 | 0.00 | 0.00 | 33 | 1015.9 |
| 20260506111616 | 60 | 13 | 2.0 | 4.0 | 0.00 | 0.00 | 0.00 | 33 | 1015.9 |
| 20260506110615 | 59 | 341 | 3.0 | 5.0 | 0.00 | 0.00 | 0.00 | 34 | 1015.6 |
| 20260506105715 | 59 | 292 | 0.0 | 0.0 | 0.00 | 0.00 | 0.00 | 34 | 1015.5 |
| 20260506104715 | 60 | 292 | 0.0 | 3.0 | 0.00 | 0.00 | 0.00 | 33 | 1015.4 |
| 20260506103814 | 60 | 316 | 1.0 | 3.0 | 0.00 | 0.00 | 0.00 | 32 | 1015.4 |
| 20260506103731 | 60 | 315 | 2.0 | 2.0 | 0.00 | 0.00 | 0.00 | 32 | 1015.4 |
| 20260506102714 | 61 | 4 | 3.0 | 5.0 | 0.00 | 0.00 | 0.00 | 32 | 1015.4 |
| 20260506101715 | 61 | 10 | 2.0 | 5.0 | 0.00 | 0.00 | 0.00 | 32 | 1015.4 |
| 20260506100731 | 61 | 352 | 3.0 | 4.0 | 0.00 | 0.00 | 0.00 | 32 | 1015.1 |
| 20260506095730 | 62 | 328 | 2.0 | 3.0 | 0.00 | 0.00 | 0.00 | 31 | 1015.2 |
| 20260506093814 | 63 | 311 | 2.0 | 4.0 | 0.00 | 0.00 | 0.00 | 30 | 1015.1 |
| 20260506092729 | 63 | 311 | 5.0 | 8.0 | 0.00 | 0.00 | 0.00 | 29 | 1014.9 |
| 20260506091814 | 64 | 357 | 3.0 | 6.0 | 0.00 | 0.00 | 0.00 | 29 | 1014.9 |
| 20260506090816 | 63 | 314 | 2.0 | 5.0 | 0.00 | 0.00 | 0.00 | 28 | 1014.7 |
| 20260506085816 | 64 | 315 | 0.0 | 2.0 | 0.00 | 0.00 | 0.00 | 29 | 1014.7 |
| 20260506084915 | 64 | 325 | 3.0 | 5.0 | 0.00 | 0.00 | 0.00 | 28 | 1014.7 |
| 20260506082116 | 64 | 2 | 3.0 | 4.0 | 0.00 | 0.00 | 0.00 | 28 | 1014.5 |
| 20260506082014 | 64 | 311 | 2.0 | 5.0 | 0.00 | 0.00 | 0.00 | 28 | 1014.5 |
| 20260506081032 | 65 | 309 | 5.0 | 7.0 | 0.00 | 0.00 | 0.00 | 28 | 1014.4 |
| 20260506073215 | 64 | 292 | 3.0 | 5.0 | 0.00 | 0.00 | 0.00 | 28 | 1014.3 |
| 20260506072229 | 63 | 292 | 0.0 | 0.0 | 0.00 | 0.00 | 0.00 | 30 | 1014.4 |
| 20260506071215 | 64 | 247 | 0.0 | 0.0 | 0.00 | 0.00 | 0.00 | 29 | 1014.5 |
| 20260506070215 | 65 | 247 | 0.0 | 0.0 | 0.00 | 0.00 | 0.00 | 27 | 1014.2 |
| 20260506062229 | 66 | 359 | 0.0 | 1.0 | 0.00 | 0.00 | 0.00 | 26 | 1014.0 |
| 20260506050533 | 66 | 292 | 0.0 | 0.0 | 0.00 | 0.00 | 0.00 | 24 | 1013.3 |
| 20260506044533 | 66 | 292 | 0.0 | 1.0 | 0.00 | 0.00 | 0.00 | 24 | 1013.1 |
| 20260506043531 | 66 | 292 | 0.0 | 0.0 | 0.00 | 0.00 | 0.00 | 22 | 1012.9 |
| 20260506043416 | 67 | 292 | 0.0 | 0.0 | 0.00 | 0.00 | 0.00 | 22 | 1013.0 |
| 20260506042431 | 67 | 292 | 0.0 | 1.0 | 0.00 | 0.00 | 0.00 | 22 | 1012.8 |
| 20260506040517 | 68 | 270 | 2.0 | 3.0 | 0.00 | 0.00 | 0.00 | 21 | 1012.5 |
| 20260506035531 | 67 | 276 | 5.0 | 7.0 | 0.00 | 0.00 | 0.00 | 21 | 1012.5 |
| 20260506034616 | 67 | 270 | 1.0 | 3.0 | 0.00 | 0.00 | 0.00 | 21 | 1012.2 |
| 20260506033618 | 67 | 247 | 0.0 | 0.0 | 0.00 | 0.00 | 0.00 | 21 | 1012.1 |
| 20260506032632 | 68 | 247 | 0.0 | 0.0 | 0.00 | 0.00 | 0.00 | 20 | 1011.9 |
| 20260506031715 | 68 | 250 | 0.0 | 3.0 | 0.00 | 0.00 | 0.00 | 20 | 1011.8 |
| 20260506030715 | 68 | 231 | 4.0 | 11.0 | 0.00 | 0.00 | 0.00 | 20 | 1011.5 |
| 20260506025732 | 68 | 248 | 5.0 | 7.0 | 0.00 | 0.00 | 0.00 | 19 | 1011.5 |
| 20260506025616 | 68 | 257 | 5.0 | 7.0 | 0.00 | 0.00 | 0.00 | 19 | 1011.4 |
| 20260506024615 | 69 | 227 | 5.0 | 9.0 | 0.00 | 0.00 | 0.00 | 19 | 1011.1 |
| 20260506023618 | 69 | 228 | 6.0 | 10.0 | 0.00 | 0.00 | 0.00 | 20 | 1011.1 |
| 20260506022616 | 69 | 226 | 9.0 | 14.0 | 0.00 | 0.00 | 0.00 | 21 | 1010.9 |
| 20260506021616 | 70 | 231 | 7.0 | 11.0 | 0.00 | 0.00 | 0.00 | 21 | 1010.6 |
| 20260506020616 | 70 | 216 | 9.0 | 15.0 | 0.00 | 0.00 | 0.00 | 20 | 1010.4 |
| 20260506020516 | 70 | 232 | 6.0 | 9.0 | 0.00 | 0.00 | 0.00 | 20 | 1010.4 |
| 20260506014632 | 71 | 219 | 7.0 | 10.0 | 0.00 | 0.00 | 0.00 | 19 | 1010.2 |
| 20260506013632 | 72 | 225 | 8.0 | 12.0 | 0.00 | 0.00 | 0.00 | 19 | 1010.1 |
| 20260506011815 | 72 | 231 | 11.0 | 16.0 | 0.00 | 0.00 | 0.00 | 17 | 1009.9 |
| 20260506010816 | 73 | 219 | 8.0 | 10.0 | 0.00 | 0.00 | 0.00 | 19 | 1010.0 |
| 20260506004814 | 73 | 236 | 9.0 | 15.0 | 0.00 | 0.00 | 0.00 | 18 | 1009.9 |
| 20260506003817 | 73 | 222 | 8.0 | 14.0 | 0.00 | 0.00 | 0.00 | 19 | 1009.9 |
| 20260506002830 | 73 | 204 | 9.0 | 14.0 | 0.00 | 0.00 | 0.00 | 19 | 1009.9 |
| 20260506001817 | 73 | 214 | 7.0 | 10.0 | 0.00 | 0.00 | 0.00 | 19 | 1009.8 |
| 20260505235915 | 73 | 231 | 8.0 | 12.0 | 0.00 | 0.00 | 0.00 | 19 | 1009.8 |
| 20260505234917 | 73 | 238 | 10.0 | 14.0 | 0.00 | 0.00 | 0.00 | 18 | 1009.8 |
| 20260505233915 | 73 | 262 | 6.0 | 10.0 | 0.00 | 0.00 | 0.00 | 18 | 1009.8 |